Location: *
(45.5667°S, 177.5167°W)
Time: 05:04:42
(UTC+00:00)

Cosmos 2123 Rocket - Pass Details

Date: 29 May 2022
Orbit: 962 x 991 km, 82.9° (Epoch: 24 June)

Event Time Altitude Azimuth Distance (km) Brightness Sun altitude
Rises 05:53:41 0° 354° (N) 3,697 7.3 -16.3°
Reaches altitude 10° 05:56:11 10° 354° (N) 2,757 6.6 -16.7°
Maximum altitude 06:02:32 89° 76° (ENE) 1,008 4.0 -17.8°
Drops below altitude 10° 06:08:58 10° 171° (S) 2,783 6.2 -18.9°
Sets 06:11:30 0° 171° (S) 3,735 6.8 -19.3°
